Preisvergleich
Suchen Sie bei den großen Preisvergleich Portalen gleichzeitig! 


Sitemap100

6.5.2026 2:08

In den Sitemaps finden Sie im Meta-Preisvergleich häufig gefragte Suchworte sortiert nach der Anzahl der Anfragen.

Anfragen Suchwort Ergebnisse Datum Quellen
1berg 2021 - alpenvereinsjahrbuch152026-05-05 00:07:0125
1emporiasmart.me782026-05-05 00:07:0124
1872038900147582026-05-05 00:07:0124
1einhell ge-cm 36 43 li m solo442026-05-05 00:07:0124
1stihl ap 300 s,332026-05-06 00:07:1426
1hotty4272026-05-05 00:07:0123
1neolymp karabiner182026-05-05 00:07:0125
1liqui moly rückspiegel-klebe-set462026-05-05 00:07:0126
1hoka bondi 8 47272026-05-05 00:07:0124
1195 70r14c 99242026-05-05 00:07:0124
1hazet abgasanlagen-werkzeug 4684482026-05-05 00:07:0125
1multidrain uv3412026-05-05 00:07:0125
1netzteil ladekabel fsp090-dvca1282026-05-05 00:07:0125
1febi bilstein 32850672026-05-05 00:07:0124
1jbl xtreme 4 musikbox162026-05-05 00:07:0123
1sunnypillow stuhlkissen 6er set222026-05-05 00:07:0125
1sunnypillow stuhlkissen set1692026-05-05 00:07:0125
1febi bilstein 32850 radlagersatz652026-05-05 00:07:0124
1febi bilstein febi bilstein a2303300325162026-05-05 00:07:0124
1pkn631fp2e272026-05-05 00:07:0123
1cpu schutz lga1700182026-05-05 00:07:0123
1matratzen perfekt tellerlattenrost mit motor,elektrisch teller lattenrost extra132026-05-05 00:07:0121
1gq75qn900382026-05-05 00:07:0122
1netzteil einstellbar 144w1382026-05-05 00:07:0124
1lichtmaschinenregler triumph tiger 1050102026-05-05 00:07:0125
14011798481908102026-05-05 00:07:0123
1lenovo 01ax417272026-05-05 00:07:0123
1wera 05350451001102026-05-05 00:07:0122
1fepro spanndraht 3,8172026-05-05 00:07:0124
11682-211f febest radnabe162026-05-05 00:07:0126
1cloud schulranzen-set bagger rocco 5-teilig332026-05-05 00:07:0125
1worldpack bestway cabin pro daypack 54 cm302026-05-05 00:07:0125
1elmex zahnpasta kariesschutz 75ml1402026-05-05 00:07:0125
1motorola edge 60 neo 12gb 256gb pantone grisaille182026-05-05 00:07:0125
1kartusche 117849112026-05-05 00:07:0126
1eckregulierventil schell5272026-05-05 00:07:0125
1eckregulierventil 1 2 schell3032026-05-05 00:07:0125
1akku makita bl1430 3ah 14,4v212026-05-06 00:07:1426
18720389001987122026-05-05 00:07:0123
1moskitonetze ford transit custom mayr82026-05-05 00:07:0124
1repeater 2400 mit lan anschluss162026-05-05 00:07:0124
1centurion country r900 lx402026-05-05 00:07:0124
1renogy 30a dc-dc mit mppt82026-05-05 00:07:0125
1bauknecht kgdnf 20am in82026-05-05 00:07:0123
1helmut lotti goes classic 30 years jubilee edition212026-05-05 00:07:0124
1mann c 25 210192026-05-05 00:07:0125
1i7 rtx ada1732026-05-05 00:07:0124
1hollywoodschaukel smart granit272026-05-05 00:07:0125
1milo, das müllautokind122026-05-05 00:07:0125
1bluebrixx-pro ed-20982026-05-05 00:07:0125
1revolution race damen hose m522026-05-05 00:07:0126
1gardena tauchdruckpumpe inox automatik132026-05-05 00:07:0124
1bugatti halbschuhe - cognac4082026-05-05 00:07:0125
1lipton ice tea sparkling lemon142026-05-05 00:07:0123
1shimano bremsbeläge br-m530 m70t382026-05-05 00:07:0125
1bestway 5678 sandfilter242026-05-05 00:07:0125
1royal canin renal hund 12 x 410g222026-05-06 00:07:1426
1sandfilteranlage bestway 5678232026-05-05 00:07:0124
1wilson evolution game basketball 7192026-05-05 00:07:0125
1dl80mc92026-05-05 00:07:0124
1akku original makita bl1430 3ah 14,4v102026-05-06 00:07:1425
1mavaro neo 4532026-05-05 00:07:0126
1gläserne butte112026-05-05 00:07:0126
1leica bellows r272026-05-05 00:07:0124
1leica apo summicron m 90792026-05-05 00:07:0126
1pankreatin kapseln 20000572026-05-06 00:07:1426
1unterlegscheiben edelstahl v4a m30152026-05-06 00:07:1426
1schwalbe felgenmutter schwarz av122026-05-06 00:07:1425
1bauknecht eco star 6524102026-05-06 00:07:1425
1vickywood small willow 140132026-05-06 00:07:1426
1wolfcraft schmiege und gehrungsschneidlade pro - 695600092026-05-06 00:07:1424
1uvex pheos guard992026-05-06 00:07:1425
1apple macbook neo 13 512 ssd702026-05-06 00:07:1424
1einhell tc-ac 240 50 10522026-05-06 00:07:1424
1te-ac 270 50 silent552026-05-06 00:07:1424
1einhell te-ac 270 50 silent542026-05-06 00:07:1425
13.5 h milch1782026-05-06 00:07:1425
1worx landroid vision s300 cloud172026-05-06 00:07:1425
1addipure n-butan142026-05-06 00:07:1425
1goodyear ultragrip performance 3 225 40 r18 92v xl902026-05-06 00:07:1424
1ghost e-teru advanced eq 2025232026-05-06 00:07:1426
1final fantasy vii remake switch 2572026-05-06 00:07:1426
1roco 7310083112026-05-06 00:07:1424
1redmi 14 4g 8 gb ram482026-05-06 00:07:1425
1cherry kc 200 mx mx2a brown612026-05-06 00:07:1425
1dr.oetker pizza352026-05-06 00:07:1425
1aperol spritz 0.7372026-05-06 00:07:1425
1xiaomi redmi pad 2 pro keyboard tastatur de qwertz82026-05-06 00:07:1425
1siemens tq727d03152026-05-06 00:07:1425
1peugeot line untersetzer672026-05-06 00:30:4726
1gardena tauchdruckpumpe 6000 inox102026-05-06 00:07:1426
1096611132026-05-06 00:07:1424
1zendure ac plus342026-05-06 00:07:1424
1scrub daddy original512026-05-06 00:07:1424
1usb rotationsrasierer992026-05-06 00:07:1425
1zendure sf2400 ac772026-05-06 00:07:1426
1q10 kapseln ubichin972026-05-06 00:07:1426
1mini r52 cooper s katalysator372026-05-06 00:07:1425
1dreame a3 pro 3500202026-05-06 00:07:1424
1180 55 r17 bridgestone s23492026-05-06 00:07:1425
1pernambuko bogen82026-05-06 00:07:1426
1smart cool bezug tempur212026-05-06 00:07:1426
1bogen pernambuko92026-05-06 00:07:1425
1sennheiser soundprotex gehörschutz292026-05-06 00:07:1425
1smartcool tempur2472026-05-06 00:07:1424
1smartcool bezug tempur462026-05-06 00:07:1424
1sensecap p1 pro132026-05-06 00:07:1425
1bezug tempur air comfort112026-05-06 00:07:1425
1fitgriff fußschlaufe942026-05-06 00:07:1425
1garmin drivesmart 55 - traffic - gps-navigationsgerät82026-05-06 00:07:1426
1pernambuco violine1062026-05-06 00:07:1426
1barnacks erste leica352026-05-06 00:07:1425
1puig windschild dayona iii852026-05-06 00:07:1424
1fitgriff fußschlaufe v3212026-05-06 00:07:1425
1propain tyee 29572026-05-06 00:07:1426
1tyreinflate 20172026-05-06 00:07:1426
1neron 46102026-05-06 00:07:1424
1tempur air comfort272026-05-06 00:07:1425
1barfußschuh leguano neron , gr. 46,82026-05-06 00:07:1426
1gold vreneli 10 franken152026-05-06 00:07:1424
1anderson kupplung1952026-05-06 00:07:1426
1peugeot - salzmühle line 18 cm502026-05-06 00:29:2625
1rotkehlchen aus besteck152026-05-06 01:45:1626
1nike vomero plus herren 45872026-05-06 00:07:1425
1puig 1984w1102026-05-06 00:07:1420
1reiseführer korfu3382026-05-06 00:07:1418
1samsung galaxy a54 hülle und panzerfolie92026-05-06 00:07:1426
1samsung galaxy a54 5g hülle und panzerfolie92026-05-06 00:07:1426
1uto og20202026-05-06 00:07:1423
1fizzclean wc-reiniger2672026-05-06 00:07:1426
1bosch connect-modul bcm3100272026-05-06 00:07:1426
1reusch city master gore-tex damen122026-05-06 00:07:1426
1gartenbank sonne teak722026-05-06 00:07:1425
1beach flag print912026-05-06 00:07:1425
1anker solix everfrost 2 40442026-05-06 00:07:1424
1cb-500 radio92026-05-06 00:07:1425
1scott fastlane792026-05-06 00:07:1424
1kostal plenticore g3 m 8,5kw252026-05-06 00:07:1426
1colpofix652026-05-06 00:07:1423
1immermobil82026-05-06 00:07:1422
1liqui moly top tec 4410 5w-30 5 l1692026-05-06 00:07:1423
1liqui moly top tec 4410 5w-302472026-05-06 00:07:1425
1canyon endurace onfly82026-05-06 00:07:1424
1liqui moly top tec 4410 5w-30 5l552026-05-06 00:07:1425
1albrecht ae5900 mini ssb172026-05-06 00:07:1425
1max factor x 125112026-05-06 00:07:1423
1kavu rope sling 10152026-05-06 00:07:1424
1möve superwuschel 50x100cm snow242026-05-06 00:07:1425
1kit ecovacs t50 omni292026-05-06 00:07:1423
1philips master led expertcolor 3.9-35w gu10 927 25d92026-05-06 00:07:1424
1oxford pro advanced92026-05-06 00:07:1424
1gefu hobel violin122026-05-06 00:07:1425
1gefu v hobel violi412026-05-06 00:07:1422
1skf sy 506m132026-05-06 00:07:1425
1oxford pro touring2192026-05-06 00:07:1425
14017777253078152026-05-06 00:07:1424
1bealife gerätehaus282026-05-06 00:07:1424
14017777254174152026-05-06 00:07:1423
1berner klebeband202026-05-06 00:07:1424
1d3 20000 k2 vitabay132026-05-06 00:07:1426
1360931992026-05-06 00:07:1425
1kostal helivor hv 12.8132026-05-06 00:07:1426
1byd battery-box hvs 12.8822026-05-06 00:07:1424
1möve frottana handtuch 50 x 100 cm weiß252026-05-06 00:07:1425
1e -rollstuhl842026-05-06 00:07:1424
1wasserkühlung rtx 3070402026-05-06 00:07:1424
1ulanzi ma60612026-05-06 00:07:1425
1wasserkühlung rtx3070362026-05-06 00:07:1426
1akku schlagschrauber worx wx27282026-05-06 00:07:1425
1chefman pizzaofen152026-05-06 00:07:1426
1bbt-9 park tool302026-05-06 00:07:1426
1amica egss 321 900112026-05-06 00:42:0526
1regenponcho wasserdicht5212026-05-06 00:16:5219
1velo de ville foldy162026-05-06 01:29:3725
1otriven 0,1 20 ml462026-05-06 00:07:1426
1sq-lab 611 ergowave active1372026-05-06 00:07:1424
1kostal backup switch302026-05-06 00:07:1425
1wlan video türsprechanlage 2 x 10 zoll152026-05-06 00:07:1424
1braun series 3 rasierer kombipack2012026-05-06 00:07:1426
1presslufthorn132026-05-06 00:07:1423
1vitamin d3 k2 5000 tropfen 50ml142026-05-06 01:04:0425
1knauf easy putz 0,5 20kg162026-05-06 00:07:1424
1walimex pro 500 6,31192026-05-06 00:07:1425
1nespresso nda-16122026-05-06 00:07:1424
1aabcooling presslufthorn102026-05-06 00:07:1423
1orthomol neuro kapseln, 30 st122026-05-06 00:07:1425
1hg nespresso entkalker122026-05-06 00:07:1425
1samsung galaxy tab s11 wifi2962026-05-06 00:07:1424
1xiaomi 15t 512gb neu mit vertrag162026-05-06 00:07:1425
1lizetan plus 100 stück392026-05-06 00:07:1425
1de longhi ecodecalk descaler482026-05-06 00:07:1424
1bois imperial 100ml432026-05-06 00:07:1424
1exide agm ek 620312026-05-06 00:07:1426
1varta d52 agm a8182026-05-06 00:07:1424
1akku schlagschrauber 20v worx532026-05-06 00:07:1425
1akku schlagschrauber 20v worx 27292026-05-06 00:07:1424
1tp powerlink162026-05-06 00:07:1426
1sillage5702026-05-06 00:07:1425
1firetv 4k max172026-05-06 00:07:1426
1beurer em 59 89 heat elektroden nachkaufset162026-05-06 00:07:1425
1makita akku-handkreissäge hs301dz462026-05-06 00:07:1425
1makita bl1041b li1782026-05-06 00:07:1425
1tefal bbq booster cb641892026-05-06 00:07:1424
14046173100303192026-05-06 00:07:1423
1asus zenbook pro 14 duo oled ux8402vv162026-05-06 00:07:1425
1valerian pro 282026-05-06 00:07:1426
1valerion visionmaster pro 21172026-05-06 00:07:1426
125 kg lebensmittel sonnenblumenkerne122026-05-06 00:07:1426
1siemens lj97bdp60162026-05-06 00:07:1426
1brit care fresh chicken weight control102026-05-06 01:03:3925
1xiaomi 15t 256gb gold602026-05-06 00:07:1423
1apple iphone 17 pro max512gb neu882026-05-06 00:07:1425
1marbert bath body classic lotion 400ml562026-05-06 00:07:1424
14005546210209222026-05-06 00:07:1424
1versace the dreamer 50ml322026-05-06 00:07:1426
1ooono pd3132026-05-06 00:07:1425
1monster white4212026-05-06 00:07:1424
1afnan turathi blue 100ml132026-05-06 00:07:1425
1blasenpflaster unter den füßen762026-05-06 00:07:1423
1lattafa asad 50ml112026-05-06 00:07:1426
1hmc 10 sc142026-05-06 00:07:1425
1hue neon outdoor 10m152026-05-06 00:07:1424
1ccc 7962026-05-06 00:07:1424
1aeg lr8ew8060092026-05-06 00:07:1424
1sm-x736 5g622026-05-06 00:07:1426
1sikafloor -264 plus142026-05-06 00:07:1423
1delonghi ex105172026-05-06 00:07:1423
1garmin s 50852026-05-06 00:07:1424
1golfuhr garmin s 50172026-05-06 00:07:1425
1sram nx eagle pg-1230 kassette kette92026-05-06 00:07:1425
1sram nx eagle kassette kette set132026-05-06 00:07:1425
1air drops haribo652026-05-06 00:07:1424
1megasat 100204102026-05-06 00:07:1423
1the bad peach82026-05-06 00:07:1423
1hp color laserjet enterprise m555x622026-05-06 00:07:1422
1lenovo yoga slim snapdragon x elite342026-05-06 00:07:1424
1gd-0170172026-05-06 00:07:1425
1garronda 90252026-05-06 00:07:1426
1a 103 s3502026-05-06 00:07:1424
1a 103 s bosch392026-05-06 00:07:1424
13397014117252026-05-06 00:07:1424
1federbeinstützlager febi bilstein 193534272026-05-06 00:07:1422
1usb-a auf usb-b 10 m aktiv322026-05-06 00:07:1424
1galaxy tab s11 5g ohne vertrag162026-05-06 00:07:1424
1barberboss3272026-05-06 00:07:1422
1febi 170500332026-05-06 00:07:1424
1nagetier abwehr1822026-05-06 00:07:1424
1arizona naturleder 46602026-05-06 00:07:1423
1vdo 2803605027302202026-05-06 00:07:1424
1aktives usb-a auf usb-b 10 m242026-05-06 00:07:1423
1schwalbe marathon plus 28x1,40 1110076982026-05-06 00:07:1426
1vemo v30-81-0003-1272026-05-06 00:07:1424
1extech 40773092026-05-06 00:07:1424
1new balance 373 dark olivine152026-05-06 00:07:1426
1gds 18 330 hc1472026-05-06 00:07:1426
1casio mtp-m 305 l - 1 av132026-05-06 00:07:1425
1stihl akku ap 500s752026-05-06 00:07:1425
anzahl 257 xml 257


Preisvergleich
Wichtige Information zu den Preisangaben: Alle Preise verstehen sich inklusive der gesetzlichen Mehrwertsteuer und gegebebenfalls zuzüglich Versandkosten. Zum Zeitpunkt des Kaufes ist der aktuell auf der Händlerseite angegebene Preis maßgeblich. Bitte beachten Sie, dass aus technischen Gründen zeitweise Abweichungen, des Preises, der Lieferbarkeit und der Versandkosten entstehen können.

Affiliate-Offenlegung: Wenn Sie auf dieser Website auf Links zu verschiedenen Händlern klicken und einen Kauf tätigen, kann dies dazu führen, dass diese Website eine Provision erhält. Zu den Partnerprogrammen und Partnerschaften gehört unter anderem das eBay Partner Network. Als Amazon-Partner verdienen wir an qualifizierten Verkäufen.

Diese Website verwendet Cookies und Dienste von Drittanbietern. Durch die Nutzung dieser Website erklären Sie sich damit einverstanden, dass wir Cookies verwenden und Daten an Drittanbieter weitergeben. Insbesondere geben Sie durch das Klicken auf externe Links Ihr Einverständnis, dass anonyme Affiliate-Tracking-Cookies verwendet werden.

Meta-Preisvergleich - Ihre intelligente Shopping-Plattform

Funktionen:
Preisvergleich - Produktvergleich - Shopbewertung - Gutscheine - Produktbilder

Themen:
Buch Preisvergleich - Musik Preisvergleich - Film Preisvergleich - Spiele Computerspiele - Medikamente - Ärzte - Optik und Kontaktlinsen - Krankenversicherung - Preisvergleich Reisen - Kreuzfahrt Preisvergleich - Flüge Preisvergleich - Mietwagen - Hotel Preisvergleich - Ferienhaus Mieten - Stromtarife - Versicherungen - Geldanlage - Finanzierung - Auto - Immobilien - Handy-Tarife - Internetzugang - Geschenke - Singlebörsen - KI-Chatbot

Erklärungen:
Preisvergleich Übersicht / Marktübersicht - Liste der Preisvergleich Quellen - Benutzerdefinierte Preisvergleich Quellen - Erklärungen zum Meta-Preisvergleich

Sitemaps:
1 - 2 - 3 - 4 - 5 - 6 - 7 - 8 - 9 - 10 - 11 - 12 - 13 - 14 - 15 - 16 - 17 - 18 - 19 - 20 - 21 - 22 - 23 - 24 - 25 - 26 - 27 - 28 - 29 - 30 - 31 - 32 - 33 - 34 - 35 - 36 - 37 - 38 - 39 - 40 - 41 - 42 - 43 - 44 - 45 - 46 - 47 - 48 - 49 - 50 - 51 - 52 - 53 - 54 - 55 - 56 - 57 - 58 - 59 - 60 - 61 - 62 - 63 - 64 - 65 - 66 - 67 - 68 - 69 - 70 - 71 - 72 - 73 - 74 - 75 - 76 - 77 - 78 - 79 - 80 - 81 - 82 - 83 - 84 - 85 - 86 - 87 - 88 - 89 - 90 - 91 - 92 - 93 - 94 - 95 - 96 - 97 - 98 - 99 - 100 -
Impressum / Datenschutzerklärung     Presse / Links / Logos    
Copyright © 2003-2026 MetaMind GmbH